Tracking 30692 objects as of 17-Jun-2025
HD Live streaming from Space Station
objects crossing your sky now

STARLINK-31058

Track STARLINK-31058 now!
10-day predictions
STARLINK-31058 is classified as:


NORAD ID: 58677
Int'l Code: 2023-211L
Perigee: 489.2 km
Apogee: 491.2 km
Inclination: 43.0 °
Period: 94.3 minutes
Semi major axis: 6861 km
RCS: Unknown
Launch date: December 29, 2023
Source: United States (US)
Launch site: AIR FORCE EASTERN TEST RANGE (AFETR)
Your satellite tracking list
Your tracking list is empty




NASA's NSSDC Master Catalog

Two Line Element Set (TLE):
1 58677U 23211L   25167.41327842 -.00000443  00000-0 -65643-5 0  9996
2 58677  43.0054 148.8416 0001471 268.0881  91.9803 15.27576171 81741
Source of the keplerian elements: AFSPC